This is the latest recevied weather packets stored in our database for station/object KN6DHD. If no packets are shown the sender has not sent any weather packets the latest 10 day(s).
| Time | Temp. | Humidity | Pressure | Rain* | Wind** | Luminosity | Snow |
|---|---|---|---|---|---|---|---|
| 1777665372 | 25° C | 58% | 1013.6 hPa | 0 mm | - | 609 W/m² | - |
| 1777665067 | 24.44° C | 61% | 1013.9 hPa | 0 mm | - | 616 W/m² | - |
| 1777664758 | 25° C | 58% | 1013.9 hPa | 0 mm | - | 620 W/m² | - |
| 1777664453 | 23.89° C | 60% | 1013.9 hPa | 0 mm | - | 600 W/m² | - |
| 1777664150 | 24.44° C | 58% | 1013.9 hPa | 0 mm | - | 645 W/m² | - |
| 1777663850 | 24.44° C | 59% | 1014.1 hPa | 0 mm | - | 652 W/m² | - |
| 1777663546 | 23.89° C | 61% | 1014.1 hPa | 0 mm | - | 635 W/m² | - |
| 1777663244 | 24.44° C | 59% | 1014.2 hPa | 0 mm | - | 629 W/m² | - |
| 1777662940 | 24.44° C | 59% | 1014.3 hPa | 0 mm | - | 629 W/m² | - |
| 1777662637 | 23.89° C | 60% | 1014.5 hPa | 0 mm | - | 636 W/m² | - |
| 1777662333 | 23.33° C | 63% | 1014.4 hPa | 0 mm | - | 639 W/m² | - |
| 1777662028 | 22.78° C | 64% | 1014.5 hPa | 0 mm | - | 609 W/m² | - |
| 1777661725 | 22.78° C | 63% | 1014.6 hPa | 0 mm | - | 593 W/m² | - |
| 1777661421 | 22.78° C | 64% | 1014.5 hPa | 0 mm | - | 588 W/m² | - |
| 1777661117 | 22.22° C | 65% | 1014.4 hPa | 0 mm | - | 626 W/m² | - |
| 1777660812 | 21.67° C | 66% | 1014.7 hPa | 0 mm | - | 90 W/m² | - |
| 1777660510 | 21.67° C | 66% | 1014.9 hPa | 0 mm | - | 77 W/m² | - |
| 1777660206 | 21.67° C | 67% | 1014.8 hPa | 0 mm | - | 74 W/m² | - |
| 1777659903 | 21.11° C | 66% | 1014.5 hPa | 0 mm | - | 72 W/m² | - |
| 1777659599 | 21.11° C | 67% | 1014.8 hPa | 0 mm | - | 78 W/m² | - |
| 1777659297 | 20.56° C | 70% | 1014.8 hPa | 0 mm | - | 78 W/m² | - |
| 1777658994 | 20.56° C | 69% | 1014.9 hPa | 0 mm | - | 78 W/m² | - |
| 1777658691 | 20.56° C | 68% | 1014.8 hPa | 0 mm | - | 75 W/m² | - |
| 1777658386 | 20° C | 71% | 1014.8 hPa | 0 mm | - | 75 W/m² | - |
| 1777658084 | 20° C | 71% | 1014.9 hPa | 0 mm | - | 75 W/m² | - |
* Rain latest hour (hover to see other rain measurements)
** Current wind speed in m/s (hover to see current wind gust speed)